Location: Unspecified
(49.2170°N, 0.0000°E)
Time: 10:18:13
(UTC+00:00)

Vanguard 2 Rocket - Pass Details

Date: 27 January 2021
Orbit: 554 x 3326 km, 32.9° (Epoch: 25 February)

Event Time Altitude Azimuth Distance (km) Brightness Sun altitude
Rises 19:21:53 0° 262° (W) 4,945 12.0 -24.9°
Reaches altitude 10° 19:29:27 10° 226° (SW) 3,084 10.1 -26.1°
Maximum altitude 19:30:21 10° 219° (SW) 2,963 9.9 -26.3°
Drops below altitude 10° 19:31:13 10° 212° (SSW) 2,884 9.8 -26.4°
Enters shadow 19:35:34 - 175° (S) 3,105 9.6 -27.1°
